This demonstration page uses our WeatherBlox Daily Observations layout. Learn more.

Left ArrowRight Arrow

39.01783, -85.05884

Hourly Observations for April 14, 2019

Temp ( °F °C ) Dew Point ( °F °C ) Humidity (%) Winds ( mph kmh ) Pressure ( in mb ) Visibility ( mi km ) Precip ( " mm )
12:52 am 00:52 Cloudy 56 13.3 43 6.1 62 62 NE 14 22 29.85 1011 10 16 0.02 0.51
1:52 am 01:52 Cloudy with Light Rain 56 13.3 42 5.6 60 60 NE 13 20 29.83 1010 10 16 N/A
2:52 am 02:52 Cloudy with Light Rain 52 11.1 44 6.7 75 75 NE 13 20 29.80 1009 6 10 0.04 1.02
3:52 am 03:52 Cloudy with Rain 50 10 46 7.8 86 86 ENE 17 28 29.76 1008 5 8 0.14 3.56
4:52 am 04:52 Cloudy with Rain 48 8.9 44 6.7 86 86 E 22 35 29.71 1006 5 8 0.14 3.56
5:08 am 05:08 Cloudy with Rain 48 8.9 44 6.7 86 86 ENE 12 19 29.74 1007 6 10 0.03 0.76
5:26 am 05:26 Cloudy with Rain 48 8.9 44 6.7 86 86 ENE 13 20 29.72 1007 4 6 0.07 1.78
5:35 am 05:35 Cloudy with Light Rain 48 8.9 45 7.2 89 89 NE 14 22 29.71 1006 6 10 0.09 2.29
5:38 am 05:38 Cloudy with Rain 48 8.9 45 7.2 89 89 ENE 16 26 29.71 1006 6 10 0.09 2.29
5:52 am 05:52 Cloudy with Light Rain 48 8.9 45 7.2 89 89 NE 9 15 29.67 1005 9 14 0.10 2.54
6:52 am 06:52 Cloudy with Light Rain 49 9.4 46 7.8 90 90 W 13 20 29.67 1005 5 8 0.08 2.03
7:52 am 07:52 Cloudy with Light Rain 49 9.4 47 8.3 93 93 E 13 20 29.63 1003 4 6 0.07 1.78
8:42 am 08:42 Cloudy 52 11.1 50 10 93 93 E 13 20 29.59 1002 10 16 0.03 0.76
8:52 am 08:52 Cloudy 52 11.1 50 10 93 93 E 12 19 29.55 1001 10 16 0.03 0.76
9:07 am 09:07 Cloudy 52 11.1 49 9.4 89 89 E 12 19 29.56 1001 8 13 N/A
9:34 am 09:34 Cloudy with Mist and Fog 52 11.1 50 10 93 93 NE 15 24 29.51 999 3 4 N/A
9:41 am 09:41 Cloudy with Mist and Fog 52 11.1 50 10 93 93 ENE 15 24 29.51 999 1 2 N/A
9:52 am 09:52 Cloudy with Mist and Fog 52 11.1 50 10 93 93 ENE 12 19 29.49 999 1 2 N/A
10:52 am 10:52 Cloudy with Mist and Fog 55 12.8 52 11.1 90 90 E 9 15 29.45 997 1 2 N/A
11:04 am 11:04 Cloudy 57 13.9 54 12.2 90 90 E 7 11 29.46 998 9 14 N/A
11:40 am 11:40 Cloudy 63 17.2 58 14.4 84 84 ESE 12 19 29.42 996 10 16 N/A
11:52 am 11:52 Cloudy 66 18.9 60 15.6 81 81 SE 13 20 29.40 996 10 16 N/A
12:52 pm 12:52 Mostly Cloudy 73 22.8 62 16.7 69 69 S 18 30 29.34 994 10 16 N/A
1:52 pm 13:52 Mostly Cloudy 74 23.3 57 13.9 56 56 SSW 20 31 29.31 992 10 16 N/A
2:52 pm 14:52 Cloudy 71 21.7 55 12.8 57 57 SW 16 26 29.29 992 10 16 0.01 0.25
3:52 pm 15:52 Mostly Cloudy 76 24.4 49 9.4 39 39 SSW 24 39 29.28 992 10 16 N/A
4:25 pm 16:25 Mostly Cloudy with Light Rain 67 19.4 54 12.2 63 63 W 32 52 29.29 992 10 16 N/A
4:32 pm 16:32 Mostly Cloudy with Light Rain 65 18.3 55 12.8 70 70 W 24 39 29.32 993 9 14 N/A
4:34 pm 16:34 Windy with Storms Likely 64 17.8 56 13.3 75 75 W 21 33 29.34 993 7 11 N/A
4:38 pm 16:38 Mostly Cloudy with Thunderstorms 64 17.8 55 12.8 73 73 W 21 33 29.34 993 7 11 0.01 0.25
4:52 pm 16:52 Mostly Cloudy with Light Thunderstorms 64 17.8 56 13.3 75 75 W 16 26 29.32 993 10 16 0.02 0.51
4:59 pm 16:59 Cloudy 65 18.3 56 13.3 73 73 W 15 24 29.32 993 10 16 N/A
5:52 pm 17:52 Mostly Cloudy 63 17.2 51 10.6 65 65 WSW 17 28 29.36 994 10 16 N/A
6:44 pm 18:44 Cloudy with Light Rain 58 14.4 52 11.1 81 81 WSW 17 28 29.42 996 6 10 0.01 0.25
6:52 pm 18:52 Cloudy 58 14.4 51 10.6 78 78 WSW 18 30 29.41 996 10 16 0.01 0.25
7:52 pm 19:52 Cloudy 52 11.1 45 7.2 77 77 WSW 25 41 29.47 998 10 16 N/A
8:52 pm 20:52 Cloudy 47 8.3 40 4.4 77 77 W 22 35 29.54 1001 10 16 N/A
9:52 pm 21:52 Cloudy 44 6.7 37 2.8 76 76 W 20 31 29.60 1003 10 16 N/A
10:52 pm 22:52 Cloudy 42 5.6 34 1.1 73 73 W 25 41 29.65 1004 10 16 N/A
11:08 pm 23:08 Cloudy 41 5 34 1.1 76 76 W 17 28 29.69 1005 10 16 N/A
11:22 pm 23:22 Cloudy with Light Rain 40 4.4 34 1.1 79 79 W 21 33 29.70 1006 9 14 N/A
11:52 pm 23:52 Cloudy 39 3.9 32 undefined 76 76 W 22 35 29.68 1005 10 16 N/A

Powered by AerisWeather